Location: N�rnberg
(49.4489°N, 11.0797°E)
Time: 12:31:36
(UTC+02:00)

ISS - Visible Passes

Search period start: 13 May 2021 00:00
Search period end: 23 May 2021 00:00
Orbit: 417 x 422 km, 51.6° (Epoch: 13 May)

Date Brightness Start Highest point End Pass type
(mag) Time Alt. Az. Time Alt. Az. Time Alt. Az.
13 May -1.1 00:32:06 12° ENE 00:32:06 12° ENE 00:32:28 10° ENE visible
13 May -3.2 02:05:02 38° WNW 02:06:00 57° N 02:09:21 10° ENE visible
13 May -3.8 03:39:37 10° WNW 03:43:01 85° NNE 03:46:24 10° ESE visible
14 May -3.3 01:18:38 60° N 01:18:38 60° N 01:21:52 10° ENE visible
14 May -3.5 02:52:10 10° WNW 02:55:32 70° NNE 02:58:55 10° E visible
14 May -3.2 04:29:06 10° W 04:32:15 37° SSW 04:35:24 10° SE visible
14 May -3.3 22:51:11 10° SW 22:54:19 37° SSE 22:55:35 26° ESE visible
15 May -3.5 00:27:40 10° W 00:31:01 70° NNW 00:34:24 10° ENE visible
15 May -3.3 02:04:42 10° WNW 02:08:04 61° N 02:11:25 10° E visible
15 May -3.7 03:41:35 10° WNW 03:44:54 54° SSW 03:48:12 10° SE visible
15 May -2.7 22:04:10 10° SSW 22:07:00 26° SE 22:09:52 10° E visible
15 May -3.8 23:40:11 10° WSW 23:43:34 85° NNW 23:46:57 10° ENE visible
16 May -3.1 01:17:13 10° WNW 01:20:33 57° N 01:23:54 10° E visible
16 May -3.9 02:54:07 10° WNW 02:57:30 74° SSW 03:00:52 10° ESE visible
16 May -2.2 04:31:32 10° W 04:33:53 18° SW 04:36:14 10° S visible
16 May -3.9 22:52:46 10° WSW 22:56:08 74° SSE 22:59:30 10° ENE visible
17 May -3.1 00:29:43 10° W 00:33:03 57° N 00:36:24 10° ENE visible
17 May -3.8 02:06:40 10° WNW 02:10:03 85° NNE 02:13:27 10° ESE visible
17 May -2.8 03:43:45 10° W 03:46:37 26° SW 03:49:29 10° SSE visible
17 May -3.7 22:05:26 10° SW 22:08:44 53° SSE 22:12:01 10° ENE visible
17 May -3.3 23:42:12 10° W 23:45:33 61° N 23:48:54 10° ENE visible
18 May -3.5 01:19:13 10° WNW 01:22:35 70° NNE 01:22:56 63° ENE visible
18 May -3.5 22:54:42 10° W 22:58:04 70° NNW 23:01:27 10° ENE visible
19 May -3.3 00:31:45 10° WNW 00:35:05 61° N 00:36:32 30° ENE visible
19 May -1.5 02:08:37 10° WNW 02:09:26 16° W 02:09:26 16° W visible
19 May -3.7 22:07:13 10° WSW 22:10:36 85° NNW 22:13:58 10° ENE visible
19 May -3.1 23:44:15 10° WNW 23:47:35 57° N 23:50:21 14° E visible
20 May -2.7 01:21:09 10° WNW 01:23:17 36° W 01:23:17 36° W visible
20 May -3.1 22:56:45 10° W 23:00:04 57° N 23:03:25 10° ENE visible
21 May -3.8 00:33:41 10° WNW 00:37:04 86° NNE 00:37:12 81° ENE visible
21 May -3.2 22:09:13 10° W 22:12:34 61° N 22:15:55 10° ENE visible
21 May -3.6 23:46:14 10° WNW 23:49:36 70° NNE 23:51:10 29° E visible
22 May -1.6 01:23:09 10° W 01:24:06 17° W 01:24:06 17° W visible
22 May -3.3 22:58:45 10° WNW 23:02:05 61° N 23:05:10 12° E visible
